Chapleau Airport
CYLD : now visible

Airfield :











YOU CAN JOIN US ON...

 
LOGIN :

Register | Disclaimer

   EN    FR    IT 

 









Legend :    VFR   Marginal VFR   IFR   Intensive IFR   Very Intensive IFR
Visi :
Ceiling :
>= 8 km
>= 3000ft
5 to 8 km
1000 to 3000 ft
1500m to 5 km
500 to 1000 ft
800 to 1500m
200 to 500 ft
< 800m
< 200 ft
Symbols :   Thunderstorms  Fog  Heavy snow  Heavy precipitations  Wind > 20 kt







- Airport Elevation : 1470 ft
- IATA code : YLD


CYLD - Chapleau

CURRENT METAR :
  • 191300Z 23006KT 190V250 15SM BKN013 22/21 A2967 RMK SC6 SLP050 DENSITY ALT 2900FT

EXPIRED METARs :
  • 191200Z 22005KT 190V250 15SM OVC007 21/21 A2967 RMK SC8 /R55/ AFT 00UTC SLP049 DENSITY ALT 2800FT

TAF TAF CYLD
Valid from the 19 at 14:00 until the 20 at 01:00 UTC


191342Z 1914/2001 23006KT P6SM BKN008
TEMPO 1914/1915 SCT012 BKN025
FM191500 23012G22KT P6SM SCT030
TEMPO 1915/1918 BKN020
BECMG 1916/1918 25015G25KT
FM192000 26010G20KT P6SM FEW040 SCT160
BECMG 1922/1924 24007KT RMK NXT FCST BY 192000Z
CZYZ FIR / North America



MET'MAP, your aeronautical weather chart ! - Copyright ORBIFLY December 2007 - Disclaimer

ORBIFLY MET'MAP TEAM :

Programming & Development : Alexandra Zaïnal
Concept & Development : Baudouin d'Aumeries
Co-Development & Prog : Marc-Olivier Méhu
Technical & hardware support : Manuel Goepfert

Contact : metmap@orbifly.com




SOURCES & CREDITS :

   NOAA       Earth
Advisory